Location: Pulvis Stellarum Observatory
(41.6962°N, 71.4263°W)
Time: 11:49:52
(UTC-04:00)

Daily predictions for brighter satellites

Satellite Brightness Start Highest point End
(mag) Time Altitude Azimuth Time Altitude Azimuth Time Altitude Azimuth
ATLAS 5 CENTAUR R/B 3.4 20:51:19 10° WSW 20:55:58 43° NW 21:01:01 10° NNE
Cosmos 1655 Rocket 4.2 20:50:30 10° S 20:56:43 80° W 21:02:58 10° N
Envisat 3.3 20:51:57 10° SSE 20:56:52 52° ENE 21:01:48 10° N
DELTA 2 R/B (1) 3.6 20:52:39 10° W 20:58:12 72° S 21:03:43 10° E
S3M 4.0 20:52:49 10° N 20:58:57 74° E 21:05:04 10° SSE
Cosmos 1378 4.0 20:55:52 10° SSW 20:59:32 54° W 21:03:13 10° N
H-2A R/B 2.2 20:55:35 10° SSE 21:00:06 71° ENE 21:04:38 10° N
CZ-4 DEB 4.4 20:59:44 10° SSW 21:02:42 34° W 21:05:41 10° NNW
Cosmos 1328 Rocket 3.6 20:59:58 10° N 21:04:27 78° E 21:08:53 10° S
Cosmos 371 Rocket 3.4 21:00:56 10° NNW 21:05:46 81° WSW 21:10:33 10° SSE
ERS-1 Rocket 3.2 21:01:35 10° S 21:06:37 75° WSW 21:11:40 10° NNW
Cosmos 2228 Rocket 3.4 21:04:40 10° NNW 21:09:07 72° W 21:13:36 10° S
Cosmos 2219 Rocket 4.4 21:07:21 10° NNE 21:09:26 12° NE 21:11:31 10° ENE
SPOT 5 3.0 21:07:13 10° SSE 21:11:35 55° ENE 21:16:15 10° N
Cosmos 1777 Rocket 4.1 21:07:29 10° S 21:12:38 57° ESE 21:17:47 10° NNE
ALOS 4.2 21:09:36 10° SSW 21:13:37 28° W 21:17:40 10° NW
YAOGAN 6 3.7 21:11:34 10° SE 21:14:43 30° ENE 21:17:55 10° N
Cosmos 1743 Rocket 3.9 21:13:19 10° SSW 21:17:47 71° W 21:22:15 10° N
Cosmos 405 3.6 21:15:02 10° N 21:18:31 42° ENE 21:21:39 12° SSE
MetOp-A 4.4 21:13:47 10° SSE 21:18:59 55° ENE 21:24:12 10° N
ARGOS 4.1 21:14:18 10° SE 21:19:04 33° ENE 21:23:50 10° N
Cosmos 1437 3.9 21:19:09 11° SSE 21:21:44 27° E 21:24:34 10° NE
NOSS 3-1 (C) 4.5 21:18:31 10° SSE 21:22:56 23° ESE 21:27:37 10° ENE
H-2A R/B 3.8 21:20:25 10° ESE 21:24:08 20° ENE 21:27:55 10° NNE
Cosmos 1500 Rocket 3.6 21:20:11 10° S 21:24:32 87° W 21:28:58 10° N
deb Chang Zheng 4 4.0 21:21:29 10° N 21:25:47 65° WNW 21:30:03 10° SSW
Cosmos 2219 4.0 21:21:34 10° SSE 21:26:30 31° ESE 21:31:28 10° NE
BREEZE M DEB (TANK) 4.2 21:30:26 10° SSW 21:30:44 10° SSW 21:31:02 10° SSW
Cosmos 2322 3.9 21:28:36 10° NNW 21:34:17 61° ENE 21:38:57 15° SE
Cosmos 1441 Rocket 3.9 21:31:53 10° SSW 21:35:36 55° WNW 21:39:18 10° N
SPOT 1/Viking Rocket 3.8 21:31:27 13° SE 21:35:49 53° ENE 21:40:50 10° N
ATLAS CENTAUR R/B 3.4 21:32:43 10° WNW 21:36:17 23° WSW 21:39:37 10° SSW
Cosmos 2237 Rocket 4.4 21:33:42 10° NNE 21:36:24 13° NE 21:39:07 10° ENE
Delta 2 Rocket 4.1 21:37:16 10° SW 21:39:58 21° SSE 21:40:48 20° SE
Cosmos 2322 Rocket 3.2 21:35:03 10° NW 21:40:19 43° WSW 21:45:34 10° S
PSLV R/B 3.3 21:37:46 13° S 21:40:27 70° WSW 21:43:31 10° NNW
Cosmos 1680 Rocket 3.7 21:35:18 10° NNW 21:40:30 61° ENE 21:44:32 17° SE
OE (NEXTSAT) 4.5 21:39:19 10° WNW 21:42:53 66° SSW 21:45:08 21° SE
Cosmos 923 Rocket 4.0 21:38:33 10° NNW 21:43:47 84° ENE 21:47:59 16° SSE
Cosmos 1726 3.5 21:42:57 10° NNE 21:46:07 25° ENE 21:47:47 18° ESE
SL-16 R/B 3.3 21:44:21 10° NW 21:49:34 39° WSW 21:54:46 10° S
USA 245 2.4 21:48:59 26° SSE 21:50:15 59° ENE 21:52:40 10° N
Cosmos 304 Rocket 3.8 21:46:07 10° NNW 21:50:58 78° ENE 21:54:23 19° SSE
Cosmos 2360 Rocket 2.2 21:45:44 10° NNW 21:51:25 84° ENE 21:55:40 18° SSE
Cosmos 2315 Rocket 4.0 21:46:15 10° N 21:52:27 70° E 21:57:25 16° SSE
NOAA 11 4.3 21:49:29 17° SSE 21:53:34 62° ENE 21:58:57 10° N
CZ-4B R/B 3.5 21:48:29 10° NNE 21:53:48 75° ESE 21:59:00 10° S
Cosmos 1908 3.9 21:50:11 10° NNW 21:54:00 54° W 21:57:31 12° S
Cosmos 1898 Rocket 4.4 21:53:03 19° SE 21:55:33 29° E 21:59:57 10° NE
AVUM R/B 3.3 21:53:31 10° SW 21:55:44 50° WNW 21:58:11 10° NNE
Cosmos 2266 Rocket 4.3 21:51:55 10° SSW 21:58:13 71° W 22:04:27 10° N
Landsat 7 4.4 21:56:08 21° SE 21:58:58 43° ENE 22:03:28 10° N
USA 229 DEB 4.1 21:58:17 10° SW 22:05:10 67° NW 22:12:10 10° NNE
USA 229 4.1 21:58:23 10° SW 22:05:15 68° NW 22:12:15 10° NNE
Cosmos 1633 Rocket 3.6 22:05:12 25° SE 22:07:14 41° E 22:11:21 10° NNE
Sich 1 3.5 22:05:33 25° SSE 22:07:45 44° E 22:11:58 10° NNE
Cosmos 2151 3.7 22:10:37 10° SSW 22:14:43 53° W 22:18:51 10° N
Terra 2.4 22:12:30 25° SE 22:14:50 43° ENE 22:19:20 10° N
Cosmos 1674 4.4 22:11:31 10° SW 22:14:59 33° WNW 22:18:31 10° N
Cosmos 2227 Rocket 3.5 22:15:59 20° ESE 22:16:49 20° E 22:20:52 10° NE
Cosmos 1244 Rocket 4.5 22:12:18 14° S 22:17:49 81° E 22:24:08 10° N
SL-23 DEB 3.6 22:13:31 10° WNW 22:18:16 82° SW 22:19:33 37° SE
Cosmos 1805 Rocket 3.6 22:17:06 18° S 22:20:26 82° W 22:24:55 10° N
Cosmos 2333 Rocket 3.5 22:16:48 10° N 22:21:52 30° NE 22:25:11 18° ESE
SeaSat 1 4.3 22:18:40 11° E 22:21:52 20° NE 22:25:24 10° N
Meteor 1-4 Rocket 3.1 22:19:33 10° N 22:23:12 44° ENE 22:24:10 36° ESE
USA 32 4.2 22:18:11 10° N 22:23:23 58° E 22:25:56 29° SSE
Cosmos 1300 2.7 22:19:38 10° N 22:23:30 84° W 22:25:07 33° S
CZ-4 R/B 4.0 22:19:22 10° N 22:24:20 78° WNW 22:28:34 14° SSW
NOSS 3-1 (A) 3.6 22:20:05 15° S 22:24:45 50° ESE 22:30:56 10° NE
Cosmos 1626 3.8 22:25:01 20° E 22:25:01 20° E 22:27:45 10° NE
SL-16 R/B 4.4 22:24:25 10° NNE 22:27:37 15° NE 22:30:49 10° E
CZ-4C R/B 3.0 22:31:52 42° S 22:32:56 75° WSW 22:36:25 10° NNW
COSMOS 2428 2.7 22:28:00 10° NNW 22:33:43 90° ENE 22:36:34 31° SSE
Cosmos 1745 Rocket 4.1 22:32:33 27° SSE 22:35:57 60° E 22:42:02 10° NNE
Cosmos 1707 Rocket 4.0 22:34:15 10° NNW 22:38:32 58° W 22:40:38 28° SSW
SL-08 R/B 4.4 22:35:14 25° S 22:39:01 74° E 22:45:17 10° N
Cosmos 1666 Rocket 3.9 22:39:51 23° SSW 22:42:28 64° W 22:46:52 10° N
DELTA 2 R/B (1) 3.9 22:39:06 10° W 22:44:22 46° SSW 22:45:57 36° SSE
Cosmos 2297 Rocket 3.4 22:43:59 24° ESE 22:44:23 24° ESE 22:48:48 10° NE
Cosmos 2298 Rocket 4.0 22:41:52 18° SSW 22:45:52 84° WNW 22:51:13 10° NNE
Cosmos 2058 4.2 22:42:56 14° SW 22:46:06 37° WNW 22:49:57 10° N
Cosmos 1455 2.9 22:42:57 10° N 22:46:31 38° ENE 22:46:54 37° E
ATLAS 2AS CENTAUR R/B 3.6 22:45:19 29° SE 22:47:33 34° ESE 22:54:27 10° NE
Cosmos 2219 Rocket 2.3 22:48:55 10° NNW 22:54:30 67° ENE 22:56:41 37° SE
COSMOS 2455 4.4 22:50:03 10° N 22:55:05 27° NE 22:59:00 14° E
Cosmos 1470 Rocket 3.5 22:54:47 50° SSE 22:55:45 69° E 23:00:03 10° NNE
Cosmos 1933 Rocket 3.5 22:56:12 49° SSE 22:57:16 69° E 23:01:44 10° NNE
Cosmos 1937 Rocket 3.4 22:56:44 34° S 22:59:04 79° ESE 23:04:17 10° NNE
ARGOS 4.4 22:55:49 17° SSW 22:59:14 33° W 23:04:05 10° NNW
H-2A R/B 2.5 23:00:41 32° SSW 23:03:02 59° W 23:08:24 10° NNW
Cosmos 220 Rocket 3.9 23:02:18 50° S 23:03:23 80° ESE 23:07:50 10° NNE
BREEZE-M DEB (TANK) 3.0 23:04:41 10° NW 23:06:46 45° NNE 23:07:05 43° NE
Cosmos 1386 Rocket 4.3 23:04:48 37° S 23:07:21 77° E 23:13:22 10° N
Cosmos 1980 3.9 23:02:24 10° NNW 23:08:01 63° ENE 23:10:00 39° SE
IGS 5A 3.9 23:07:27 43° SSW 23:08:27 54° W 23:12:33 10° NNW
Cosmos 1703 3.8 23:07:24 40° SW 23:08:29 55° W 23:12:20 10° N
ATLAS 3B R/B 3.8 23:03:55 10° NNW 23:10:28 38° NE 23:15:00 17° ESE
Cosmos 2219 4.5 23:05:07 10° SW 23:10:29 40° WNW 23:15:54 10° N
NOSS 3-1 (C) 3.9 23:07:16 10° SW 23:13:05 62° NW 23:19:37 10° NNE
Cosmos 1271 Rocket 3.5 23:10:36 10° NNW 23:14:12 41° W 23:14:50 38° WSW
Cosmos 990 Rocket 3.8 23:13:26 46° S 23:14:58 78° ESE 23:20:07 10° NNE
NOSS 0 Rocket 3.8 23:08:57 10° NNW 23:15:09 87° ENE 23:17:23 42° SSE
Cosmos 1726 4.2 23:18:31 10° NW 23:21:20 20° W 23:22:28 18° WSW
Cosmos 2237 Rocket 2.2 23:15:47 10° NNW 23:21:31 74° ENE 23:23:15 46° SE
Cosmos 2082 3.6 23:21:48 45° S 23:23:35 71° ESE 23:29:18 10° NNE
Cosmos 1933 3.9 23:20:27 10° N 23:24:20 44° ENE 23:24:22 44° E
Cosmos 2360 Rocket 4.5 23:32:12 10° WNW 23:34:35 13° W 23:36:59 10° WSW
IKONOS-2 4.4 23:36:22 76° SE 23:36:39 82° ENE 23:40:58 10° N
Cosmos 1862 Rocket 4.0 23:32:32 10° NNW 23:36:46 51° W 23:37:19 47° WSW
Cosmos 1125 Rocket 3.6 23:42:38 56° SE 23:43:12 59° ESE 23:48:26 10° NNE
CZ-4B R/B 3.2 23:43:58 26° ENE 23:43:58 26° ENE 23:46:30 10° NNE
Cosmos 1048 Rocket 4.5 23:40:00 10° N 23:45:14 52° ENE 23:46:28 43° ESE
Cosmos 1689 Rocket 4.1 23:53:08 27° NE 23:53:08 27° NE 23:55:20 10° N
Terra 3.7 23:51:23 18° WSW 23:52:45 20° W 23:56:15 10° NW
